| time (UTC) | temp C | wind direction | speed KPH | gust KPH | rain 1hr cm | rain 24hr cm | rain mn cm | humidity % | barometer mb |
| 20260508005018 | 11 | 229 | 0.0 | 0.0 | 0.00 | 0.86 | 0.61 | 85 | 1006.0 |
| 20260508004539 | 11 | 248 | 0.0 | 0.0 | 0.00 | 0.86 | 0.61 | 85 | 1005.9 |
| 20260508004015 | 11 | 241 | 0.0 | 0.0 | 0.00 | 0.86 | 0.61 | 85 | 1005.7 |
| 20260508003533 | 11 | 263 | 0.0 | 0.0 | 0.00 | 0.86 | 0.61 | 84 | 1005.5 |
| 20260508003053 | 11 | 264 | 0.0 | 0.0 | 0.00 | 0.86 | 0.61 | 84 | 1005.4 |
| 20260508002525 | 11 | 238 | 0.0 | 0.0 | 0.00 | 0.86 | 0.61 | 84 | 1005.2 |
| 20260508002045 | 11 | 267 | 0.0 | 0.0 | 0.00 | 0.86 | 0.61 | 84 | 1005.4 |
| 20260508001605 | 11 | 277 | 0.0 | 0.0 | 0.00 | 0.86 | 0.61 | 84 | 1005.4 |
| 20260508001015 | 11 | 274 | 0.0 | 0.0 | 0.00 | 0.86 | 0.61 | 83 | 1005.4 |
| 20260508000535 | 11 | 250 | 0.0 | 0.0 | 0.00 | 0.86 | 0.61 | 83 | 1005.3 |
| 20260508000009 | 11 | 263 | 0.0 | 0.0 | 0.00 | 0.86 | 0.61 | 82 | 1005.4 |
| 20260507235530 | 11 | 230 | 0.0 | 0.0 | 0.00 | 1.17 | 0.61 | 82 | 1005.4 |
| 20260507235052 | 11 | 236 | 0.0 | 0.0 | 0.00 | 1.17 | 0.61 | 81 | 1005.5 |
| 20260507234508 | 11 | 231 | 0.0 | 0.0 | 0.00 | 1.17 | 0.61 | 81 | 1005.5 |
| 20260507234105 | 11 | 214 | 0.0 | 0.0 | 0.00 | 1.17 | 0.61 | 81 | 1005.5 |
| 20260507233515 | 12 | 228 | 0.0 | 0.0 | 0.00 | 1.17 | 0.61 | 80 | 1005.5 |
| 20260507233035 | 12 | 224 | 0.0 | 0.0 | 0.00 | 1.17 | 0.61 | 80 | 1005.5 |
| 20260507232509 | 12 | 254 | 0.0 | 1.6 | 0.00 | 1.17 | 0.61 | 80 | 1005.4 |
| 20260507232028 | 12 | 202 | 0.0 | 1.6 | 0.00 | 1.17 | 0.61 | 79 | 1005.5 |
| 20260507231549 | 12 | 219 | 0.0 | 1.6 | 0.00 | 1.17 | 0.61 | 79 | 1005.4 |
| 20260507231023 | 12 | 245 | 0.0 | 0.0 | 0.00 | 1.17 | 0.61 | 79 | 1005.2 |
| 20260507230547 | 12 | 241 | 0.0 | 0.0 | 0.00 | 1.17 | 0.61 | 79 | 1005.3 |
| 20260507230013 | 12 | 225 | 0.0 | 0.0 | 0.00 | 1.17 | 0.61 | 78 | 1005.2 |
| 20260507225537 | 12 | 236 | 0.0 | 1.6 | 0.00 | 1.17 | 0.61 | 78 | 1005.2 |
| 20260507225023 | 12 | 242 | 0.0 | 3.2 | 0.00 | 1.17 | 0.61 | 78 | 1005.1 |
| 20260507224543 | 12 | 227 | 0.0 | 3.2 | 0.00 | 1.17 | 0.61 | 79 | 1005.1 |
| 20260507224103 | 12 | 201 | 0.0 | 8.0 | 0.00 | 1.17 | 0.61 | 79 | 1005.1 |
| 20260507223541 | 12 | 212 | 0.0 | 8.0 | 0.00 | 1.17 | 0.61 | 78 | 1005.1 |
| 20260507223057 | 12 | 229 | 0.0 | 4.8 | 0.00 | 1.17 | 0.61 | 78 | 1005.0 |
| 20260507222534 | 12 | 233 | 0.0 | 6.4 | 0.00 | 1.17 | 0.61 | 79 | 1004.9 |
| 20260507222052 | 12 | 229 | 0.0 | 12.9 | 0.00 | 1.17 | 0.61 | 79 | 1004.9 |
| 20260507221503 | 12 | 219 | 4.8 | 12.9 | 0.00 | 1.17 | 0.61 | 79 | 1005.1 |
| 20260507221045 | 12 | 240 | 1.6 | 9.7 | 0.00 | 1.17 | 0.61 | 80 | 1005.0 |
| 20260507220508 | 12 | 217 | 0.0 | 11.3 | 0.00 | 1.17 | 0.61 | 82 | 1005.1 |
| 20260507220037 | 12 | 229 | 4.8 | 12.9 | 0.00 | 1.17 | 0.61 | 82 | 1005.1 |
| 20260507215558 | 12 | 214 | 4.8 | 11.3 | 0.00 | 1.17 | 0.61 | 83 | 1005.2 |
| 20260507215030 | 12 | 221 | 3.2 | 12.9 | 0.00 | 1.17 | 0.61 | 83 | 1005.0 |
| 20260507214556 | 12 | 212 | 3.2 | 12.9 | 0.00 | 1.17 | 0.61 | 85 | 1005.1 |
| 20260507214030 | 12 | 199 | 0.0 | 8.0 | 0.00 | 1.17 | 0.61 | 87 | 1005.0 |
| 20260507213609 | 12 | 230 | 1.6 | 8.0 | 0.00 | 1.17 | 0.61 | 88 | 1005.0 |
| 20260507213020 | 12 | 224 | 1.6 | 11.3 | 0.00 | 1.17 | 0.61 | 88 | 1004.9 |
| 20260507212544 | 12 | 236 | 1.6 | 11.3 | 0.00 | 1.17 | 0.61 | 88 | 1005.0 |
| 20260507212028 | 12 | 216 | 3.2 | 12.9 | 0.00 | 1.17 | 0.61 | 87 | 1004.9 |
| 20260507211600 | 12 | 229 | 0.0 | 12.9 | 0.00 | 1.17 | 0.61 | 88 | 1004.9 |
| 20260507211006 | 12 | 215 | 0.0 | 11.3 | 0.00 | 1.17 | 0.61 | 88 | 1005.0 |
| 20260507210538 | 12 | 231 | 3.2 | 11.3 | 0.00 | 1.17 | 0.61 | 87 | 1005.0 |
| 20260507210003 | 12 | 230 | 1.6 | 12.9 | 0.00 | 1.17 | 0.61 | 88 | 1004.8 |
| 20260507205541 | 12 | 200 | 3.2 | 12.9 | 0.00 | 1.17 | 0.61 | 87 | 1004.9 |
| 20260507205104 | 12 | 215 | 3.2 | 16.1 | 0.00 | 1.17 | 0.61 | 87 | 1005.0 |
| 20260507204521 | 12 | 224 | 8.0 | 16.1 | 0.00 | 1.17 | 0.61 | 87 | 1005.0 |
| 20260507204056 | 12 | 214 | 6.4 | 16.1 | 0.00 | 1.17 | 0.61 | 87 | 1004.8 |
| 20260507203521 | 12 | 226 | 6.4 | 16.1 | 0.00 | 1.17 | 0.61 | 87 | 1004.9 |
| 20260507203056 | 12 | 221 | 1.6 | 17.7 | 0.00 | 1.17 | 0.61 | 87 | 1005.0 |
| 20260507202531 | 12 | 222 | 3.2 | 17.7 | 0.00 | 1.17 | 0.61 | 87 | 1004.8 |
| 20260507202008 | 12 | 240 | 3.2 | 16.1 | 0.00 | 1.17 | 0.61 | 87 | 1004.7 |
| 20260507201536 | 12 | 207 | 3.2 | 17.7 | 0.00 | 1.17 | 0.61 | 89 | 1004.8 |
| 20260507201003 | 12 | 225 | 9.7 | 17.7 | 0.00 | 1.17 | 0.61 | 88 | 1004.7 |
| 20260507200525 | 12 | 222 | 11.3 | 19.3 | 0.00 | 1.17 | 0.61 | 88 | 1004.9 |
| 20260507200008 | 12 | 221 | 12.9 | 19.3 | 0.00 | 1.17 | 0.61 | 88 | 1004.9 |
| 20260507195537 | 12 | 211 | 9.7 | 17.7 | 0.00 | 1.17 | 0.61 | 88 | 1004.9 |
| 20260507195057 | 12 | 213 | 8.0 | 14.5 | 0.00 | 1.17 | 0.61 | 87 | 1004.9 |
| 20260507194507 | 12 | 214 | 9.7 | 19.3 | 0.00 | 1.17 | 0.61 | 88 | 1005.0 |
| 20260507194026 | 12 | 236 | 9.7 | 19.3 | 0.00 | 1.17 | 0.61 | 88 | 1005.2 |
| 20260507193609 | 12 | 229 | 9.7 | 17.7 | 0.00 | 1.17 | 0.61 | 88 | 1005.2 |
| 20260507193034 | 12 | 212 | 9.7 | 16.1 | 0.00 | 1.17 | 0.61 | 88 | 1005.4 |
| 20260507192602 | 12 | 226 | 11.3 | 16.1 | 0.00 | 1.17 | 0.61 | 88 | 1005.3 |
| 20260507192012 | 11 | 215 | 4.8 | 16.1 | 0.00 | 1.17 | 0.61 | 87 | 1005.3 |
| 20260507191543 | 11 | 213 | 8.0 | 16.1 | 0.00 | 1.17 | 0.61 | 87 | 1005.3 |
| 20260507191006 | 12 | 212 | 9.7 | 16.1 | 0.00 | 1.17 | 0.61 | 87 | 1005.5 |
| 20260507190527 | 11 | 224 | 9.7 | 17.7 | 0.00 | 1.17 | 0.61 | 87 | 1005.6 |
| 20260507190004 | 12 | 198 | 9.7 | 17.7 | 0.00 | 1.17 | 0.61 | 87 | 1005.8 |
| 20260507185520 | 12 | 211 | 9.7 | 17.7 | 0.00 | 1.17 | 0.61 | 86 | 1005.7 |
| 20260507185040 | 12 | 216 | 8.0 | 17.7 | 0.00 | 1.17 | 0.61 | 84 | 1005.8 |
| 20260507184515 | 12 | 258 | 6.4 | 16.1 | 0.00 | 1.17 | 0.61 | 84 | 1005.8 |
| 20260507184035 | 12 | 208 | 4.8 | 12.9 | 0.00 | 1.17 | 0.61 | 84 | 1005.8 |
| 20260507183557 | 12 | 214 | 4.8 | 12.9 | 0.00 | 1.17 | 0.61 | 84 | 1005.9 |
| 20260507183114 | 11 | 223 | 6.4 | 16.1 | 0.00 | 1.17 | 0.61 | 83 | 1005.9 |
| 20260507182530 | 12 | 218 | 4.8 | 14.5 | 0.00 | 1.17 | 0.61 | 85 | 1005.9 |
| 20260507182111 | 12 | 223 | 6.4 | 12.9 | 0.00 | 1.17 | 0.61 | 84 | 1005.9 |
| 20260507181519 | 12 | 217 | 3.2 | 14.5 | 0.00 | 1.17 | 0.61 | 83 | 1006.0 |
| 20260507181038 | 12 | 224 | 6.4 | 14.5 | 0.00 | 1.17 | 0.61 | 83 | 1006.1 |
| 20260507180559 | 12 | 208 | 8.0 | 14.5 | 0.00 | 1.17 | 0.61 | 82 | 1006.0 |
| 20260507180014 | 13 | 210 | 8.0 | 16.1 | 0.00 | 1.17 | 0.61 | 80 | 1006.2 |
| 20260507175528 | 14 | 226 | 6.4 | 14.5 | 0.00 | 1.17 | 0.61 | 69 | 1006.2 |
| 20260507175049 | 15 | 212 | 0.0 | 1.6 | 0.00 | 1.17 | 0.61 | 66 | 1006.2 |
| 20260507174530 | 15 | 274 | 0.0 | 4.8 | 0.00 | 1.17 | 0.61 | 69 | 1006.3 |
| 20260507174042 | 14 | 202 | 0.0 | 4.8 | 0.00 | 1.17 | 0.61 | 68 | 1006.3 |
| 20260507173507 | 14 | 245 | 0.0 | 3.2 | 0.00 | 1.17 | 0.61 | 65 | 1006.3 |
| 20260507173101 | 14 | 136 | 0.0 | 3.2 | 0.00 | 1.17 | 0.61 | 68 | 1006.3 |
| 20260507172535 | 14 | 276 | 0.0 | 6.4 | 0.00 | 1.17 | 0.61 | 72 | 1006.3 |
| 20260507172014 | 13 | 200 | 0.0 | 1.6 | 0.00 | 1.17 | 0.61 | 73 | 1006.2 |
| 20260507171553 | 13 | 212 | 0.0 | 1.6 | 0.00 | 1.17 | 0.61 | 75 | 1006.2 |
| 20260507171029 | 13 | 234 | 0.0 | 4.8 | 0.00 | 1.17 | 0.61 | 78 | 1006.3 |
| 20260507170512 | 13 | 229 | 0.0 | 4.8 | 0.00 | 1.17 | 0.61 | 77 | 1006.5 |
| 20260507170050 | 13 | 245 | 0.0 | 4.8 | 0.00 | 1.17 | 0.61 | 77 | 1006.6 |
| 20260507165514 | 12 | 301 | 0.0 | 11.3 | 0.00 | 1.17 | 0.61 | 77 | 1006.6 |
| 20260507164510 | 12 | 276 | 0.0 | 1.6 | 0.00 | 1.17 | 0.61 | 78 | 1006.5 |
| 20260507164044 | 12 | 316 | 0.0 | 3.2 | 0.00 | 1.17 | 0.61 | 80 | 1006.6 |
| 20260507163508 | 12 | 283 | 0.0 | 3.2 | 0.00 | 1.17 | 0.61 | 80 | 1006.6 |
| 20260507163022 | 12 | 233 | 0.0 | 1.6 | 0.00 | 1.17 | 0.61 | 82 | 1006.6 |
| 20260507162556 | 12 | 285 | 0.0 | 4.8 | 0.00 | 1.17 | 0.61 | 83 | 1006.7 |
| 20260507162039 | 12 | 191 | 0.0 | 4.8 | 0.00 | 1.17 | 0.61 | 83 | 1006.7 |
| 20260507161607 | 12 | 224 | 0.0 | 3.2 | 0.00 | 1.17 | 0.61 | 83 | 1006.9 |
| 20260507161008 | 11 | 217 | 0.0 | 3.2 | 0.00 | 1.17 | 0.61 | 86 | 1006.8 |
| 20260507160533 | 11 | 321 | 0.0 | 1.6 | 0.00 | 1.17 | 0.61 | 89 | 1006.8 |
| 20260507160109 | 11 | 278 | 0.0 | 1.6 | 0.00 | 1.17 | 0.61 | 91 | 1006.8 |
| 20260507155543 | 11 | 260 | 0.0 | 6.4 | 0.00 | 1.17 | 0.61 | 91 | 1007.1 |
| 20260507155103 | 11 | 274 | 0.0 | 6.4 | 0.00 | 1.17 | 0.61 | 92 | 1007.0 |
| 20260507154513 | 10 | 89 | 0.0 | 6.4 | 0.00 | 1.17 | 0.61 | 92 | 1007.0 |
| 20260507154052 | 10 | 260 | 0.0 | 0.0 | 0.00 | 1.17 | 0.61 | 93 | 1007.2 |
| 20260507153502 | 10 | 246 | 0.0 | 3.2 | 0.00 | 1.17 | 0.61 | 93 | 1007.1 |
| 20260507153132 | 10 | 269 | 0.0 | 9.7 | 0.00 | 1.17 | 0.61 | 94 | 1007.2 |
| 20260507152017 | 10 | 30 | 0.0 | 0.0 | 0.03 | 1.17 | 0.61 | 94 | 1007.2 |
| 20260507151538 | 10 | 28 | 0.0 | 0.0 | 0.03 | 1.17 | 0.61 | 94 | 1007.1 |
| 20260507151056 | 10 | 234 | 0.0 | 0.0 | 0.03 | 1.17 | 0.61 | 95 | 1007.1 |
| 20260507150510 | 10 | 209 | 0.0 | 0.0 | 0.03 | 1.17 | 0.61 | 95 | 1007.1 |
| 20260507150029 | 10 | 198 | 0.0 | 0.0 | 0.03 | 1.17 | 0.61 | 95 | 1007.0 |
| 20260507145606 | 9 | 165 | 0.0 | 1.6 | 0.03 | 1.17 | 0.61 | 95 | 1007.0 |
| 20260507145016 | 9 | 273 | 0.0 | 3.2 | 0.03 | 1.17 | 0.61 | 95 | 1007.6 |
| 20260507144539 | 10 | 295 | 0.0 | 0.0 | 0.03 | 1.17 | 0.61 | 95 | 1007.5 |
| 20260507144059 | 9 | 274 | 0.0 | 0.0 | 0.03 | 1.17 | 0.61 | 95 | 1007.3 |
| 20260507143522 | 9 | 238 | 0.0 | 0.0 | 0.03 | 1.17 | 0.61 | 95 | 1007.2 |
| 20260507143005 | 9 | 9 | 0.0 | 0.0 | 0.00 | 1.14 | 0.58 | 95 | 1007.3 |
| 20260507142533 | 8 | 302 | 0.0 | 1.6 | 0.00 | 1.14 | 0.58 | 95 | 1007.5 |
| 20260507142001 | 8 | 226 | 0.0 | 0.0 | 0.00 | 1.14 | 0.58 | 95 | 1007.5 |
| 20260507141521 | 8 | 139 | 0.0 | 0.0 | 0.00 | 1.14 | 0.58 | 95 | 1007.4 |
| 20260507141043 | 8 | 297 | 0.0 | 0.0 | 0.00 | 1.14 | 0.58 | 95 | 1007.3 |
| 20260507140604 | 8 | 259 | 0.0 | 0.0 | 0.00 | 1.14 | 0.58 | 95 | 1007.5 |
| 20260507140035 | 8 | 230 | 0.0 | 0.0 | 0.00 | 1.14 | 0.58 | 95 | 1007.3 |
| 20260507135556 | 8 | 229 | 0.0 | 0.0 | 0.00 | 1.14 | 0.58 | 95 | 1007.3 |
| 20260507135012 | 8 | 281 | 0.0 | 0.0 | 0.00 | 1.14 | 0.58 | 95 | 1007.2 |
| 20260507134535 | 8 | 94 | 0.0 | 0.0 | 0.00 | 1.14 | 0.58 | 95 | 1007.0 |
| 20260507134056 | 8 | 55 | 0.0 | 0.0 | 0.00 | 1.14 | 0.58 | 95 | 1006.5 |
| 20260507133511 | 8 | 283 | 0.0 | 1.6 | 0.00 | 1.14 | 0.58 | 95 | 1006.7 |
| 20260507133034 | 8 | 75 | 0.0 | 1.6 | 0.00 | 1.14 | 0.58 | 95 | 1006.8 |
| 20260507132551 | 8 | 21 | 0.0 | 1.6 | 0.00 | 1.14 | 0.58 | 95 | 1006.9 |
| 20260507132002 | 8 | 52 | 0.0 | 0.0 | 0.03 | 1.14 | 0.58 | 95 | 1007.0 |
| 20260507131536 | 8 | 301 | 0.0 | 0.0 | 0.03 | 1.14 | 0.58 | 95 | 1007.2 |
| 20260507131055 | 8 | 229 | 0.0 | 0.0 | 0.03 | 1.14 | 0.58 | 95 | 1007.5 |
| 20260507130504 | 8 | 68 | 0.0 | 0.0 | 0.03 | 1.14 | 0.58 | 95 | 1007.3 |
| 20260507130038 | 8 | 207 | 0.0 | 0.0 | 0.05 | 1.14 | 0.58 | 95 | 1007.3 |
| 20260507125601 | 8 | 182 | 0.0 | 0.0 | 0.05 | 1.14 | 0.58 | 95 | 1007.1 |
| 20260507125034 | 8 | 259 | 0.0 | 0.0 | 0.08 | 1.14 | 0.58 | 95 | 1007.3 |
| 20260507124551 | 8 | 281 | 0.0 | 0.0 | 0.10 | 1.14 | 0.58 | 95 | 1007.2 |
| 20260507124034 | 8 | 332 | 0.0 | 0.0 | 0.10 | 1.14 | 0.58 | 95 | 1006.9 |
| 20260507123530 | 8 | 53 | 0.0 | 1.6 | 0.10 | 1.14 | 0.58 | 95 | 1006.7 |
| 20260507123109 | 8 | 141 | 0.0 | 0.0 | 0.10 | 1.14 | 0.58 | 95 | 1006.9 |
| 20260507122508 | 8 | 73 | 0.0 | 0.0 | 0.13 | 1.14 | 0.58 | 95 | 1007.0 |
| 20260507122033 | 8 | 81 | 0.0 | 1.6 | 0.10 | 1.12 | 0.56 | 95 | 1007.1 |
| 20260507121515 | 8 | 49 | 0.0 | 1.6 | 0.13 | 1.12 | 0.56 | 95 | 1007.2 |
| 20260507121004 | 8 | 267 | 0.0 | 3.2 | 0.13 | 1.12 | 0.56 | 96 | 1006.9 |
| 20260507120551 | 8 | 49 | 0.0 | 3.2 | 0.13 | 1.12 | 0.56 | 95 | 1006.9 |
| 20260507120010 | 8 | 184 | 0.0 | 0.0 | 0.10 | 1.09 | 0.53 | 96 | 1006.9 |
| 20260507115555 | 8 | 338 | 0.0 | 0.0 | 0.10 | 1.09 | 0.53 | 96 | 1007.6 |
| 20260507115004 | 8 | 44 | 0.0 | 1.6 | 0.08 | 1.07 | 0.51 | 96 | 1007.5 |
| 20260507114529 | 8 | 277 | 0.0 | 1.6 | 0.08 | 1.04 | 0.48 | 96 | 1007.3 |
| 20260507114054 | 8 | 283 | 0.0 | 4.8 | 0.08 | 1.04 | 0.48 | 96 | 1007.1 |
| 20260507113509 | 8 | 31 | 0.0 | 16.1 | 0.08 | 1.04 | 0.48 | 96 | 1006.5 |
| 20260507113044 | 8 | 115 | 0.0 | 16.1 | 0.08 | 1.04 | 0.48 | 96 | 1006.2 |
| 20260507112530 | 8 | 27 | 0.0 | 1.6 | 0.05 | 1.02 | 0.46 | 96 | 1006.2 |
| 20260507112050 | 8 | 301 | 0.0 | 1.6 | 0.05 | 1.02 | 0.46 | 96 | 1006.4 |
| 20260507111520 | 9 | 62 | 0.0 | 1.6 | 0.05 | 0.99 | 0.43 | 96 | 1006.5 |
| 20260507111053 | 9 | 25 | 0.0 | 0.0 | 0.10 | 0.99 | 0.43 | 96 | 1006.6 |
| 20260507110510 | 9 | 333 | 0.0 | 0.0 | 0.23 | 0.99 | 0.43 | 96 | 1006.8 |
| 20260507110039 | 9 | 212 | 0.0 | 0.0 | 0.25 | 0.99 | 0.43 | 96 | 1006.6 |
| 20260507105604 | 9 | 73 | 0.0 | 0.0 | 0.28 | 0.99 | 0.43 | 96 | 1006.5 |
| 20260507105033 | 9 | 84 | 0.0 | 0.0 | 0.33 | 0.99 | 0.43 | 96 | 1006.3 |
| 20260507104507 | 9 | 67 | 0.0 | 0.0 | 0.33 | 0.97 | 0.41 | 96 | 1006.4 |
| 20260507104004 | 9 | 68 | 0.0 | 0.0 | 0.38 | 0.97 | 0.41 | 96 | 1006.3 |
| 20260507103541 | 10 | 72 | 0.0 | 0.0 | 0.41 | 0.97 | 0.41 | 96 | 1006.2 |
| 20260507103025 | 10 | 262 | 0.0 | 0.0 | 0.41 | 0.97 | 0.41 | 96 | 1006.0 |
| 20260507102503 | 10 | 191 | 0.0 | 0.0 | 0.41 | 0.97 | 0.41 | 96 | 1006.1 |
| 20260507102028 | 10 | 148 | 0.0 | 6.4 | 0.41 | 0.97 | 0.41 | 96 | 1005.8 |
| 20260507101551 | 10 | 332 | 0.0 | 14.5 | 0.38 | 0.94 | 0.38 | 96 | 1005.8 |
| 20260507101009 | 10 | 56 | 1.6 | 14.5 | 0.30 | 0.86 | 0.30 | 96 | 1005.4 |
| 20260507100530 | 10 | 260 | 0.0 | 1.6 | 0.20 | 0.76 | 0.20 | 96 | 1006.0 |
| 20260507100100 | 10 | 341 | 0.0 | 4.8 | 0.18 | 0.71 | 0.18 | 96 | 1005.6 |
| 20260507095514 | 11 | 56 | 0.0 | 9.7 | 0.15 | 0.71 | 0.15 | 96 | 1005.1 |
| 20260507095056 | 11 | 16 | 0.0 | 9.7 | 0.10 | 0.66 | 0.10 | 96 | 1005.6 |
| 20260507094513 | 11 | 266 | 0.0 | 0.0 | 0.08 | 0.64 | 0.08 | 96 | 1005.5 |
| 20260507094059 | 11 | 29 | 0.0 | 0.0 | 0.03 | 0.58 | 0.03 | 96 | 1005.2 |
| 20260507093517 | 11 | 257 | 0.0 | 0.0 | 0.00 | 0.56 | 0.00 | 96 | 1005.2 |
| 20260507093050 | 11 | 272 | 0.0 | 0.0 | 0.00 | 0.56 | 0.00 | 96 | 1005.1 |
| 20260507092534 | 11 | 221 | 0.0 | 0.0 | 0.00 | 0.56 | 0.00 | 96 | 1005.5 |
| 20260507092023 | 11 | 233 | 0.0 | 0.0 | 0.00 | 0.56 | 0.00 | 96 | 1005.5 |
| 20260507091512 | 11 | 258 | 0.0 | 0.0 | 0.00 | 0.56 | 0.00 | 96 | 1005.8 |
| 20260507091037 | 11 | 236 | 0.0 | 0.0 | 0.00 | 0.56 | 0.00 | 96 | 1005.8 |
| 20260507090557 | 11 | 183 | 0.0 | 3.2 | 0.00 | 0.56 | 0.00 | 96 | 1005.4 |
| 20260507090009 | 11 | 211 | 0.0 | 1.6 | 0.00 | 0.56 | 0.00 | 96 | 1006.0 |
| 20260507085541 | 11 | 250 | 0.0 | 4.8 | 0.00 | 0.56 | 0.00 | 96 | 1005.8 |
| 20260507085007 | 11 | 229 | 0.0 | 6.4 | 0.00 | 0.56 | 0.00 | 96 | 1005.3 |
| 20260507084552 | 11 | 203 | 0.0 | 11.3 | 0.00 | 0.56 | 0.00 | 96 | 1005.4 |
| 20260507084108 | 11 | 212 | 0.0 | 14.5 | 0.00 | 0.56 | 0.00 | 96 | 1005.2 |
| 20260507083542 | 11 | 228 | 6.4 | 14.5 | 0.00 | 0.56 | 0.00 | 96 | 1005.2 |
| 20260507083003 | 11 | 220 | 8.0 | 16.1 | 0.00 | 0.56 | 0.00 | 96 | 1005.1 |
| 20260507082526 | 11 | 217 | 3.2 | 16.1 | 0.00 | 0.56 | 0.00 | 96 | 1005.0 |
| 20260507082053 | 11 | 214 | 9.7 | 16.1 | 0.00 | 0.56 | 0.00 | 96 | 1005.1 |
| 20260507081530 | 11 | 220 | 8.0 | 16.1 | 0.00 | 0.56 | 0.00 | 96 | 1005.1 |
| 20260507081054 | 11 | 228 | 3.2 | 16.1 | 0.00 | 0.56 | 0.00 | 96 | 1005.1 |
| 20260507080542 | 12 | 207 | 1.6 | 9.7 | 0.00 | 0.56 | 0.00 | 96 | 1005.2 |
| 20260507080038 | 11 | 222 | 0.0 | 8.0 | 0.00 | 0.56 | 0.00 | 96 | 1005.2 |
| 20260507075521 | 12 | 212 | 1.6 | 8.0 | 0.00 | 0.56 | 0.00 | 96 | 1005.0 |
| 20260507075014 | 12 | 212 | 0.0 | 6.4 | 0.00 | 0.56 | 0.00 | 96 | 1005.0 |
| 20260507074601 | 12 | 208 | 0.0 | 9.7 | 0.00 | 0.56 | 0.00 | 96 | 1005.3 |
| 20260507074018 | 11 | 215 | 0.0 | 12.9 | 0.00 | 0.56 | 0.00 | 96 | 1005.5 |
| 20260507073502 | 11 | 247 | 0.0 | 12.9 | 0.00 | 0.56 | 0.00 | 96 | 1005.6 |
| 20260507073042 | 11 | 231 | 1.6 | 12.9 | 0.00 | 0.56 | 0.00 | 96 | 1005.5 |
| 20260507072522 | 12 | 234 | 0.0 | 11.3 | 0.00 | 0.56 | 0.00 | 96 | 1005.4 |
| 20260507072106 | 12 | 199 | 0.0 | 9.7 | 0.00 | 0.56 | 0.00 | 96 | 1005.7 |
| 20260507071550 | 12 | 217 | 0.0 | 14.5 | 0.00 | 0.56 | 0.00 | 96 | 1005.8 |
| 20260507071031 | 12 | 214 | 0.0 | 9.7 | 0.00 | 0.56 | 0.00 | 96 | 1005.9 |
| 20260507070509 | 12 | 217 | 0.0 | 12.9 | 0.00 | 0.56 | 0.00 | 96 | 1005.7 |
| 20260507070033 | 12 | 231 | 1.6 | 12.9 | 0.00 | 0.56 | 0.00 | 96 | 1005.6 |
| 20260507065514 | 12 | 223 | 0.0 | 12.9 | 0.00 | 0.56 | 0.00 | 96 | 1005.5 |
| 20260507065048 | 12 | 218 | 1.6 | 14.5 | 0.00 | 0.56 | 0.00 | 96 | 1005.5 |
| 20260507064548 | 12 | 215 | 3.2 | 14.5 | 0.00 | 0.56 | 0.00 | 96 | 1005.6 |
| 20260507064013 | 12 | 220 | 1.6 | 12.9 | 0.00 | 0.56 | 0.00 | 96 | 1005.7 |
| 20260507063547 | 12 | 208 | 1.6 | 12.9 | 0.00 | 0.56 | 0.00 | 96 | 1005.5 |
| 20260507063009 | 12 | 235 | 1.6 | 14.5 | 0.00 | 0.56 | 0.00 | 96 | 1005.6 |
| 20260507062553 | 12 | 222 | 3.2 | 16.1 | 0.00 | 0.56 | 0.00 | 96 | 1005.6 |
| 20260507062031 | 12 | 240 | 3.2 | 19.3 | 0.00 | 0.56 | 0.00 | 96 | 1005.6 |
| 20260507061516 | 12 | 246 | 8.0 | 19.3 | 0.00 | 0.56 | 0.00 | 96 | 1005.6 |
| 20260507061056 | 12 | 243 | 4.8 | 14.5 | 0.00 | 0.56 | 0.00 | 96 | 1005.6 |
| 20260507060544 | 12 | 221 | 3.2 | 17.7 | 0.00 | 0.56 | 0.00 | 96 | 1005.8 |
| 20260507060018 | 12 | 220 | 3.2 | 19.3 | 0.00 | 0.56 | 0.00 | 96 | 1005.9 |
| 20260507055553 | 12 | 224 | 0.0 | 19.3 | 0.00 | 0.56 | 0.00 | 96 | 1005.8 |
| 20260507055007 | 12 | 234 | 1.6 | 19.3 | 0.00 | 0.56 | 0.00 | 96 | 1006.1 |
| 20260507054534 | 12 | 259 | 6.4 | 19.3 | 0.00 | 0.56 | 0.00 | 96 | 1006.0 |
| 20260507054010 | 12 | 220 | 3.2 | 17.7 | 0.00 | 0.56 | 0.00 | 96 | 1006.2 |
| 20260507053537 | 12 | 224 | 3.2 | 19.3 | 0.00 | 0.56 | 0.00 | 96 | 1006.4 |
| 20260507053001 | 12 | 191 | 4.8 | 19.3 | 0.00 | 0.56 | 0.00 | 96 | 1006.3 |
| 20260507052538 | 12 | 226 | 3.2 | 19.3 | 0.00 | 0.56 | 0.00 | 96 | 1006.5 |
| 20260507052015 | 12 | 252 | 8.0 | 20.9 | 0.00 | 0.56 | 0.00 | 96 | 1006.6 |
| 20260507051507 | 12 | 219 | 6.4 | 22.5 | 0.00 | 0.56 | 0.00 | 96 | 1006.5 |
| 20260507051045 | 12 | 217 | 4.8 | 22.5 | 0.00 | 0.56 | 0.00 | 96 | 1006.6 |
| 20260507050507 | 12 | 218 | 9.7 | 24.1 | 0.00 | 0.56 | 0.00 | 96 | 1006.5 |
| 20260507050056 | 12 | 229 | 11.3 | 24.1 | 0.00 | 0.56 | 0.00 | 96 | 1006.6 |
| 20260507045536 | 12 | 219 | 6.4 | 22.5 | 0.00 | 0.56 | 0.00 | 96 | 1006.6 |
| 20260507045019 | 12 | 223 | 9.7 | 25.7 | 0.00 | 0.56 | 0.00 | 96 | 1006.7 |
| 20260507044542 | 12 | 228 | 12.9 | 25.7 | 0.00 | 0.56 | 0.00 | 96 | 1006.5 |
| 20260507044105 | 12 | 236 | 12.9 | 24.1 | 0.00 | 0.56 | 0.00 | 96 | 1006.6 |
| 20260507043523 | 12 | 242 | 8.0 | 24.1 | 0.00 | 0.56 | 0.00 | 95 | 1006.8 |
| 20260507043056 | 12 | 250 | 8.0 | 22.5 | 0.00 | 0.56 | 0.00 | 95 | 1006.9 |
| 20260507042531 | 12 | 225 | 6.4 | 25.7 | 0.00 | 0.56 | 0.00 | 95 | 1006.9 |
| 20260507042001 | 12 | 233 | 6.4 | 25.7 | 0.00 | 0.56 | 0.00 | 95 | 1007.0 |
| 20260507041535 | 12 | 215 | 6.4 | 24.1 | 0.00 | 0.56 | 0.00 | 95 | 1007.0 |
| 20260507041032 | 12 | 226 | 4.8 | 19.3 | 0.00 | 0.56 | 0.00 | 95 | 1007.0 |
| 20260507040554 | 12 | 228 | 1.6 | 27.4 | 0.00 | 0.56 | 0.00 | 95 | 1006.8 |
| 20260507040018 | 12 | 224 | 9.7 | 37.0 | 0.00 | 0.56 | 0.00 | 95 | 1006.7 |
| 20260507035507 | 12 | 229 | 20.9 | 37.0 | 0.00 | 0.56 | 0.56 | 95 | 1006.8 |
| 20260507035058 | 12 | 230 | 9.7 | 33.8 | 0.00 | 0.56 | 0.56 | 95 | 1006.9 |
| 20260507034517 | 12 | 245 | 14.5 | 33.8 | 0.00 | 0.56 | 0.56 | 95 | 1007.0 |
| 20260507034100 | 12 | 238 | 20.9 | 33.8 | 0.00 | 0.56 | 0.56 | 95 | 1006.9 |
| 20260507033538 | 12 | 208 | 19.3 | 32.2 | 0.00 | 0.56 | 0.56 | 95 | 1007.0 |
| 20260507033058 | 12 | 223 | 16.1 | 32.2 | 0.00 | 0.56 | 0.56 | 95 | 1006.7 |
| 20260507032521 | 12 | 225 | 19.3 | 32.2 | 0.00 | 0.56 | 0.56 | 95 | 1006.7 |
| 20260507032012 | 12 | 222 | 19.3 | 32.2 | 0.00 | 0.56 | 0.56 | 95 | 1006.8 |
| 20260507031544 | 12 | 217 | 20.9 | 30.6 | 0.00 | 0.56 | 0.56 | 95 | 1006.7 |
| 20260507031038 | 12 | 226 | 16.1 | 30.6 | 0.00 | 0.56 | 0.56 | 95 | 1006.7 |
| 20260507030519 | 12 | 221 | 19.3 | 30.6 | 0.00 | 0.56 | 0.56 | 95 | 1006.7 |
| 20260507030028 | 12 | 215 | 16.1 | 33.8 | 0.00 | 0.56 | 0.56 | 95 | 1006.9 |
| 20260507025508 | 12 | 231 | 11.3 | 33.8 | 0.00 | 0.56 | 0.56 | 95 | 1007.1 |
| 20260507025039 | 12 | 229 | 22.5 | 33.8 | 0.00 | 0.56 | 0.56 | 95 | 1007.2 |
| 20260507024551 | 13 | 218 | 20.9 | 35.4 | 0.00 | 0.56 | 0.56 | 95 | 1007.2 |
| 20260507024038 | 13 | 227 | 22.5 | 35.4 | 0.00 | 0.56 | 0.56 | 95 | 1007.5 |
| 20260507023524 | 12 | 229 | 22.5 | 35.4 | 0.00 | 0.56 | 0.56 | 95 | 1007.5 |
| 20260507023056 | 13 | 224 | 22.5 | 37.0 | 0.00 | 0.56 | 0.56 | 95 | 1007.5 |
| 20260507022542 | 13 | 210 | 24.1 | 38.6 | 0.00 | 0.56 | 0.56 | 95 | 1007.5 |
| 20260507022031 | 13 | 229 | 22.5 | 38.6 | 0.00 | 0.56 | 0.56 | 95 | 1007.5 |
| 20260507021512 | 13 | 206 | 25.7 | 38.6 | 0.00 | 0.56 | 0.56 | 95 | 1007.5 |
| 20260507021055 | 13 | 229 | 25.7 | 40.2 | 0.00 | 0.56 | 0.56 | 95 | 1007.5 |
| 20260507020518 | 13 | 234 | 27.4 | 40.2 | 0.00 | 0.56 | 0.56 | 95 | 1007.6 |
| 20260507020108 | 13 | 226 | 27.4 | 37.0 | 0.00 | 0.56 | 0.56 | 95 | 1007.6 |
| 20260507015526 | 12 | 218 | 27.4 | 41.8 | 0.03 | 0.56 | 0.56 | 95 | 1007.7 |
| 20260507015005 | 13 | 227 | 29.0 | 40.2 | 0.05 | 0.56 | 0.56 | 95 | 1007.9 |
| 20260507014528 | 13 | 215 | 29.0 | 40.2 | 0.10 | 0.56 | 0.56 | 95 | 1007.9 |
| 20260507014009 | 13 | 221 | 29.0 | 40.2 | 0.13 | 0.56 | 0.56 | 95 | 1007.9 |
| 20260507013559 | 13 | 215 | 32.2 | 41.8 | 0.18 | 0.56 | 0.56 | 95 | 1007.9 |
| 20260507013048 | 13 | 212 | 30.6 | 41.8 | 0.20 | 0.56 | 0.56 | 95 | 1007.9 |
| 20260507012515 | 13 | 213 | 30.6 | 43.5 | 0.20 | 0.56 | 0.56 | 95 | 1007.9 |
| 20260507012004 | 13 | 200 | 32.2 | 48.3 | 0.23 | 0.56 | 0.56 | 95 | 1008.0 |
| 20260507011531 | 13 | 226 | 29.0 | 48.3 | 0.23 | 0.56 | 0.56 | 95 | 1008.0 |
| 20260507011051 | 13 | 229 | 32.2 | 46.7 | 0.23 | 0.56 | 0.56 | 95 | 1008.1 |
| 20260507010532 | 13 | 222 | 33.8 | 46.7 | 0.23 | 0.56 | 0.56 | 95 | 1008.0 |
| 20260507010013 | 13 | 228 | 30.6 | 45.1 | 0.25 | 0.56 | 0.56 | 95 | 1008.0 |
| 20260507005552 | 13 | 211 | 24.1 | 37.0 | 0.23 | 0.53 | 0.53 | 95 | 1008.0 |